Location: Quebec
(46.8000°N, 71.2500°W)
Time: 03:10:08
(UTC-04:00)

Tiangong 1 - Pass Details

Date: 09 October 2017
Orbit: 293 x 320 km, 42.8° (Epoch: 19 October)

Event Time Altitude Azimuth Distance (km) Brightness Sun altitude
Rises 19:10:31 0° 251° (WSW) 2,038 6.2 -11.4°
Reaches altitude 10° 19:12:36 10° 241° (WSW) 1,204 4.5 -11.7°
Maximum altitude 19:15:03 32° 175° (S) 563 1.8 -12.2°
Enters shadow 19:16:13 22° 128° (SE) 752 2.1 -12.4°
